CCA4580 ZSPD-ZGGG

Flight info

Callsign CCA4580
Flight time N/A
Altitude 38100
Route NXD94D NXD W131 AKDIM A470 DUBGO W134 ELNEX A599 PLT W19 OLPAB OLPAB1
Aircraft A346/H-SDE2E3FGHIJ3J4J5M1RWXY/LB1D1

Departure

Time 2026-04-30 09:52
Airport Shanghai Pudong International Airport (ZSPD)

Arrival

Time N/A
Airport Guangzhou Baiyun International Airport (ZGGG)
Time Latitude Longitude Altitude Speed Heading
2026-04-30 09:05 31.15352 121.80738 30 ft 0 kts 253°
2026-04-30 09:37 31.15354 121.80746 30 ft 2 kts 254°
2026-04-30 09:38 31.15358 121.80763 30 ft 2 kts 253°
2026-04-30 09:38 31.15363 121.80780 30 ft 2 kts 253°
2026-04-30 09:38 31.15365 121.80791 30 ft 2 kts 253°
2026-04-30 09:38 31.15372 121.80807 30 ft 2 kts 230°
2026-04-30 09:39 31.15383 121.80819 30 ft 2 kts 209°
2026-04-30 09:39 31.15397 121.80825 30 ft 2 kts 190°
2026-04-30 09:39 31.15413 121.80826 30 ft 2 kts 171°
2026-04-30 09:39 31.15421 121.80823 30 ft 1 kts 161°
2026-04-30 09:40 31.15423 121.80823 30 ft 0 kts 161°
2026-04-30 09:42 31.15414 121.80827 30 ft 3 kts 163°
2026-04-30 09:42 31.15375 121.80840 30 ft 7 kts 163°
2026-04-30 09:42 31.15310 121.80863 30 ft 11 kts 162°
2026-04-30 09:43 31.15223 121.80897 30 ft 14 kts 162°
2026-04-30 09:43 31.15117 121.80936 30 ft 16 kts 162°
2026-04-30 09:43 31.15001 121.80981 30 ft 17 kts 162°
2026-04-30 09:43 31.14907 121.81016 30 ft 12 kts 162°
2026-04-30 09:44 31.14821 121.81048 30 ft 11 kts 162°
2026-04-30 09:44 31.14751 121.81074 30 ft 7 kts 162°
2026-04-30 09:44 31.14734 121.81081 30 ft 1 kts 162°
2026-04-30 09:44 31.14725 121.81084 30 ft 2 kts 162°
2026-04-30 09:45 31.14696 121.81096 30 ft 4 kts 162°
2026-04-30 09:45 31.14663 121.81109 30 ft 6 kts 162°
2026-04-30 09:45 31.14605 121.81131 30 ft 10 kts 162°
2026-04-30 09:45 31.14527 121.81160 30 ft 12 kts 162°
2026-04-30 09:46 31.14450 121.81148 30 ft 9 kts 243°
2026-04-30 09:46 31.14422 121.81070 30 ft 11 kts 246°
2026-04-30 09:46 31.14389 121.80967 30 ft 14 kts 251°
2026-04-30 09:46 31.14354 121.80844 30 ft 17 kts 252°
2026-04-30 09:47 31.14316 121.80704 30 ft 18 kts 252°
2026-04-30 09:47 31.14274 121.80552 30 ft 20 kts 252°
2026-04-30 09:47 31.14225 121.80381 30 ft 22 kts 252°
2026-04-30 09:47 31.14174 121.80199 30 ft 24 kts 252°
2026-04-30 09:48 31.14119 121.80005 30 ft 25 kts 252°
2026-04-30 09:48 31.14069 121.79829 30 ft 17 kts 253°
2026-04-30 09:48 31.14045 121.79696 30 ft 16 kts 259°
2026-04-30 09:48 31.13979 121.79627 30 ft 14 kts 175°
2026-04-30 09:49 31.13879 121.79662 30 ft 16 kts 161°
2026-04-30 09:49 31.13767 121.79706 30 ft 17 kts 161°
2026-04-30 09:49 31.13645 121.79754 30 ft 19 kts 162°
2026-04-30 09:49 31.13515 121.79803 30 ft 20 kts 162°
2026-04-30 09:50 31.13374 121.79857 30 ft 21 kts 162°
2026-04-30 09:50 31.13224 121.79913 30 ft 22 kts 162°
2026-04-30 09:50 31.13075 121.79967 30 ft 18 kts 162°
2026-04-30 09:50 31.12990 121.79991 30 ft 11 kts 187°
2026-04-30 09:51 31.12928 121.79919 30 ft 14 kts 242°
2026-04-30 09:51 31.12915 121.79834 30 ft 8 kts 299°
2026-04-30 09:51 31.12992 121.79791 30 ft 32 kts 343°
2026-04-30 09:51 31.13516 121.79592 30 ft 122 kts 342°
2026-04-30 09:52 31.14566 121.79194 74 ft 187 kts 343°
2026-04-30 09:52 31.15859 121.78691 847 ft 199 kts 344°
2026-04-30 09:52 31.17163 121.78192 1785 ft 207 kts 343°
2026-04-30 09:52 31.18599 121.77631 2501 ft 230 kts 343°
2026-04-30 09:53 31.20245 121.76986 2919 ft 271 kts 343°
2026-04-30 09:53 31.22098 121.76251 2987 ft 279 kts 342°
2026-04-30 09:53 31.23910 121.75523 2949 ft 271 kts 342°
2026-04-30 09:53 31.25777 121.74774 3313 ft 278 kts 342°
2026-04-30 09:54 31.27636 121.74025 4440 ft 274 kts 343°
2026-04-30 09:54 31.29439 121.73303 5532 ft 271 kts 343°
2026-04-30 09:54 31.31266 121.72575 6415 ft 276 kts 342°
2026-04-30 09:54 31.32968 121.71487 7267 ft 283 kts 316°
2026-04-30 09:55 31.34056 121.69513 8111 ft 287 kts 287°
2026-04-30 09:55 31.34235 121.67172 8942 ft 289 kts 261°
2026-04-30 09:55 31.33846 121.64819 9801 ft 292 kts 257°
2026-04-30 09:55 31.33411 121.62487 10557 ft 298 kts 257°
2026-04-30 09:56 31.32972 121.60053 11010 ft 314 kts 258°
2026-04-30 09:56 31.32524 121.57430 11433 ft 334 kts 258°
2026-04-30 09:56 31.32066 121.54681 11824 ft 349 kts 258°
2026-04-30 09:56 31.31593 121.51820 12242 ft 367 kts 258°
2026-04-30 09:57 31.31095 121.48798 12691 ft 383 kts 258°
2026-04-30 09:57 31.30588 121.45723 13417 ft 390 kts 258°
2026-04-30 09:57 31.30071 121.42589 14263 ft 393 kts 258°
2026-04-30 09:57 31.29541 121.39390 15084 ft 397 kts 258°
2026-04-30 09:58 31.28956 121.36227 15838 ft 400 kts 252°
2026-04-30 09:58 31.27797 121.33250 16588 ft 401 kts 236°
2026-04-30 09:58 31.26026 121.30739 17344 ft 402 kts 221°
2026-04-30 09:58 31.23889 121.28625 18102 ft 404 kts 218°
2026-04-30 09:59 31.19457 121.24459 19433 ft 411 kts 218°
2026-04-30 09:59 31.14951 121.20172 20703 ft 417 kts 218°
2026-04-30 10:00 31.10410 121.15821 22043 ft 422 kts 219°
2026-04-30 10:00 31.08342 121.13322 22642 ft 428 kts 230°
2026-04-30 10:01 31.05607 121.07000 23834 ft 439 kts 250°
2026-04-30 10:01 31.04744 121.03574 24409 ft 443 kts 251°
2026-04-30 10:01 31.03900 121.00079 24958 ft 446 kts 252°
2026-04-30 10:02 31.02183 120.93012 26057 ft 452 kts 252°
2026-04-30 10:02 31.01314 120.89481 26597 ft 454 kts 252°
2026-04-30 10:02 31.00428 120.85906 27136 ft 456 kts 252°
2026-04-30 10:02 30.99530 120.82295 27657 ft 458 kts 252°
2026-04-30 10:03 30.98642 120.78732 28147 ft 461 kts 252°
2026-04-30 10:03 30.97728 120.75071 28647 ft 463 kts 252°
2026-04-30 10:03 30.96828 120.71466 29293 ft 461 kts 252°
2026-04-30 10:03 30.95936 120.67905 29984 ft 458 kts 253°
2026-04-30 10:04 30.95034 120.64304 30646 ft 455 kts 253°
2026-04-30 10:04 30.94142 120.60751 31257 ft 453 kts 253°
2026-04-30 10:04 30.93256 120.57224 31834 ft 452 kts 253°
2026-04-30 10:04 30.92322 120.53670 32396 ft 451 kts 250°
2026-04-30 10:05 30.91141 120.50266 32927 ft 450 kts 245°
2026-04-30 10:05 30.89668 120.46997 33426 ft 449 kts 240°
2026-04-30 10:05 30.87943 120.43939 33898 ft 450 kts 234°
2026-04-30 10:05 30.85981 120.41112 34354 ft 450 kts 229°
2026-04-30 10:06 30.83795 120.38532 34811 ft 450 kts 224°
2026-04-30 10:06 30.81363 120.36179 35277 ft 450 kts 218°
2026-04-30 10:06 30.78807 120.34029 35741 ft 449 kts 216°
2026-04-30 10:06 30.76236 120.31921 36194 ft 448 kts 216°
2026-04-30 10:07 30.73647 120.29807 36594 ft 447 kts 216°
2026-04-30 10:07 30.71095 120.27721 36894 ft 449 kts 216°
2026-04-30 10:07 30.68506 120.25600 37150 ft 451 kts 216°
2026-04-30 10:07 30.65915 120.23478 37396 ft 452 kts 216°
2026-04-30 10:08 30.63350 120.21375 37627 ft 454 kts 216°
2026-04-30 10:08 30.60741 120.19236 37851 ft 455 kts 216°
2026-04-30 10:08 30.58117 120.17086 38068 ft 457 kts 216°
2026-04-30 10:08 30.55531 120.14968 38203 ft 459 kts 216°
2026-04-30 10:09 30.52897 120.12813 38210 ft 459 kts 216°
2026-04-30 10:09 30.47624 120.08504 38215 ft 459 kts 216°
2026-04-30 10:10 30.42310 120.04377 38215 ft 460 kts 212°
2026-04-30 10:10 30.36724 120.00622 38216 ft 461 kts 211°
2026-04-30 10:11 30.31133 119.96899 38216 ft 460 kts 211°
2026-04-30 10:11 30.27413 119.94424 38216 ft 460 kts 211°